Weather in Andra

Russia / Khanty-Mansi Autonomous Okrug — Yugra     62°30′56″N   65°52′49″E
temp.,
°C
wind,
m/s
gust,
m/s
humid.,
%
clouds,
%
prec.,
mm/h
press.,
hPa
HPBL,
m
13 may, thu
thu1323:00+10wsw2497100 2.6 101987
02:00+10sw229393 0.1 101817
05:00+11nw4138669 0.1 1019468
08:00+12n5116784 0.0 1021873
11:00+14nnw5745100 0.0 10231108
14:00+16nnw46356 0.0 10241343
17:00+16nnw23295 0.0 10251308
20:00+14ne11410 0.0 102410
14 may, fri
fri1423:00+10se22510 0.0 102328
02:00+9sse310600 0.0 1022189
05:00+10sse276668 0.0 1019161
08:00+18wsw412575 0.0 1016503
11:00+25w713365 0.0 10142334
14:00+25wnw71237100 0.0 10142625
17:00+21w4124754 0.2 1013392
20:00+19nw365951 0.1 1013144
15 may, sat
sat1523:00+15w2284100 1.1 101341
02:00+15wsw2384100 0.8 101188
05:00+14w3108771 0.9 1011406
08:00+17nw367963 0.0 1012707
11:00+13ne4487100 0.4 1013258
14:00+11ene228274 0.1 1015271
17:00+16nnw377098 0.1 1016853
20:00+11ne348092 0.0 1017427
16 may, sun
sun1623:00+7ene249395 0.0 1018162
02:00+7ese249484 0.0 1018119
05:00+7se2490100 0.0 1018144
08:00+11se357561 0.0 1015317
11:00+15se467197 0.0 1012548
14:00+24wsw41245100 0.1 10072432
17:00+25nw5114699 0.1 10071606
20:00+18w51480100 7.4 1006726
17 may, mon
mon1723:00+16w238981 8.8 1006113
02:00+13ssw229833 1.6 100652
05:00+12nw279623 1.6 1007277
08:00+15wnw487939 0.0 1007569
11:00+17nw477241 0.1 1007856
14:00+16n357881 0.4 1007453
17:00+14n457336 0.9 1009614
20:00+9nne4782100 0.0 1011568